[[{"header":{"parameterUnit":"m.s-1","parameterCategory":1,"la1":30.2991,"la2":30.254,"lo1":-89.0895,"lo2":-89.0444,"dy":0.0017,"dx":0.0017,"nx":28,"ny":28,"refTime":"2024-07-14T09:00:00:Z","depth":0,"parameterNumber":2,"parameterNumberName":"U-component_of_WINDS"},"data":[0,0,0,0,0,0,0,0,0,0,0,0,0,0,0,0,0,0,0,0,0,0,0,0,0,0,0,0,0,0,0,0,0,0,0,0,0,0,0,0,0,0,0,0,0,0,0,0,0,0,0,0,0,0,0,0,0,0,3.2199,3.2199,0,3.2273,3.2274,3.2275,3.2165,3.2161,3.2158,3.2154,3.2231,3.2237,3.2242,0,0,0,0,0,0,0,0,0,0,0,0,0,3.1961,3.1966,3.2199,3.22,3.2201,3.2273,3.2274,3.2275,3.2166,3.2161,3.2157,3.2152,3.2229,3.2236,3.2243,0,0,0,0,0,0,0,0,0,0,0,0,0,3.2053,3.1968,3.2198,3.2155,3.2151,3.2273,3.2274,3.2276,3.2167,3.2161,3.2155,3.215,3.2227,3.2235,3.2244,3.2412,0,0,3.227,3.2273,0,0,0,0,0,0,0,0,3.2048,3.2062,3.216,3.2158,3.2155,3.2204,3.2219,3.2321,3.2168,3.2161,3.2154,3.2147,3.2227,3.2235,3.2262,3.2415,3.2419,3.227,3.2275,3.2279,3.2282,0,0,0,0,0,0,0,3.2042,3.2058,3.2228,3.2162,3.2158,3.2131,3.2138,3.2238,3.2226,3.2161,3.2153,3.2164,3.2224,3.2254,3.2263,3.242,3.227,3.2278,3.2283,3.2286,3.2713,3.2719,0,0,0,0,0,0,3.2041,3.2053,3.2226,3.223,3.2086,3.214,3.2148,3.2194,3.2224,3.2223,3.2169,3.2158,3.2242,3.2253,3.2265,3.2462,3.2279,3.2287,3.2292,3.2707,3.2715,3.2721,0,0,0,0,0,0,3.2036,3.2057,3.2223,3.214,3.2159,3.215,3.2203,3.2199,3.2228,3.223,3.2227,3.2201,3.2238,3.2253,3.2376,3.2463,3.2291,3.2299,3.27,3.2709,3.2718,3.2858,0,0,0,0,0,0,3.203,3.2056,3.212,3.2142,3.2164,3.2333,3.2209,3.2204,3.2243,3.223,3.2259,3.2259,3.2235,3.2364,3.2384,3.2472,3.2305,3.2692,3.2704,3.2715,3.2846,3.2871,3.2893,0,0,0,0,0,3.2022,3.2157,3.2124,3.2145,3.2243,3.2338,3.235,3.2319,3.225,3.2314,3.2315,3.2258,3.2451,3.2377,3.2399,3.2491,3.2686,3.27,3.2714,3.2835,3.2866,3.2893,0,0,0,0,0,0,3.2146,3.2159,3.2122,3.2269,3.2303,3.2319,3.2398,3.2354,3.2408,3.2394,3.2354,3.2362,3.2492,3.2504,3.2422,3.2654,3.2557,3.2576,3.2641,3.2671,3.2694,3.2688,3.2312,0,0,0,0,0,3.219,3.2266,3.2273,3.2402,3.2421,3.2408,3.2447,3.2421,3.2454,3.2468,3.2478,3.2513,3.2581,3.2627,3.269,3.2848,3.2851,3.2922,3.2945,3.2965,3.2981,3.3063,3.3094,3.2768,3.2767,3.2767,0,0,3.2283,3.2299,3.235,3.2428,3.2451,3.2529,3.242,3.2508,3.2566,3.2482,3.2597,3.2606,3.2642,3.2783,3.2845,3.2796,3.3072,3.2983,3.2998,3.3004,3.3081,3.3112,3.3139,3.2777,3.2775,3.2774,0,0,3.2491,3.2512,3.262,3.2646,3.2682,3.2672,3.2698,3.2721,3.2724,3.2839,3.2777,3.2845,3.2964,3.2992,3.3022,3.3241,3.3189,3.3262,3.3385,3.3466,3.3492,3.3514,3.359,3.3618,3.3279,3.328,3.328,0,3.2601,3.2717,3.2682,3.2774,3.281,3.2737,3.2846,3.2872,3.2928,3.2954,3.2899,3.3046,3.3065,3.321,3.3263,3.3291,3.3318,3.3258,3.3491,3.3513,3.3534,3.3605,3.3634,3.3288,3.3287,3.3286,3.3285,0,3.285,3.2931,3.3014,3.3069,3.3114,3.3215,3.3194,3.3245,3.3214,3.321,3.3328,3.3349,3.3414,3.3447,3.3419,3.3588,3.3556,3.3497,3.3398,3.3574,3.364,3.3668,3.33,3.3297,3.3295,3.3293,0,0,3.3137,3.317,3.3201,3.3224,3.3259,3.3321,3.3419,3.3482,3.3524,3.3566,3.3645,3.3747,3.3692,3.3726,3.37,3.3772,3.3941,3.3703,3.3703,3.3745,3.4126,3.4169,3.4201,3.3908,3.3913,3.3917,3.4122,0,3.3342,3.3509,3.348,3.3642,3.3716,3.3648,3.3732,3.3762,3.3761,3.3824,3.3822,3.3895,3.3818,3.3837,3.3905,3.3906,3.4017,3.3891,3.398,3.3984,3.3971,3.4236,3.4282,3.4474,3.4148,3.4153,3.4156,0,3.3604,3.3654,3.3823,3.3844,3.3874,3.3951,3.4005,3.4067,3.4099,3.4093,3.4132,3.4093,3.4188,3.409,3.4221,3.4136,3.4171,3.4177,3.4184,3.4189,3.4079,3.4247,3.4535,3.4563,3.4197,3.4194,3.4191,0,3.3794,3.3903,3.4017,3.404,3.4069,3.4124,3.4139,3.4166,3.4205,3.4254,3.4279,3.4338,3.4371,3.4417,3.4395,3.4326,3.453,3.443,3.4526,3.4527,3.457,3.4568,3.4866,3.4598,3.4597,3.4597,3.4596,0,3.4025,3.413,3.4103,3.4173,3.4289,3.4255,3.4371,3.4378,3.4402,3.4472,3.4419,3.4485,3.4453,3.4518,3.4502,3.4611,3.4627,3.4624,3.4618,3.4628,3.4628,3.4648,3.4633,3.4604,3.4602,3.4601,3.46,0,3.4255,3.4241,3.4361,3.4379,3.4386,3.447,3.4485,3.455,3.4545,3.4635,3.4654,3.4646,3.4719,3.4702,3.4782,3.4771,3.4909,3.4887,3.4897,3.4891,3.4988,3.4978,3.5308,3.5349,3.5056,3.5059,3.5061,0,3.4402,3.4481,3.4507,3.455,3.4569,3.4639,3.4678,3.4649,3.4693,3.4736,3.4796,3.4864,3.4917,3.5037,3.5038,3.5099,3.5077,3.5189,3.5086,3.5092,3.5076,3.507,3.5077,3.5208,3.5212,3.5214,3.5217,0,3.4664,3.4653,3.4712,3.477,3.4818,3.4862,3.4901,3.4939,3.4912,3.4964,3.5038,3.5079,3.516,3.5228,3.5284,3.5299,3.5254,3.5249,3.5274,3.5284,3.5285,3.5283,3.495,3.5241,3.5239,3.5237,3.5236,3.5235,3.4856,3.4922,3.495,3.5018,3.5044,3.5081,3.5143,3.5145,3.5206,3.527,3.5249,3.5333,3.5363,3.5433,3.5455,3.552,3.5478,3.5515,3.5524,3.5533,3.5543,3.5277,3.553,3.553,3.5529,3.5528,3.5528,0,3.5112,3.5127,3.519,3.5245,3.5298,3.5251,3.5291,3.5338,3.5413,3.5445,3.5498,3.5582,3.5647,3.5654,3.5716,3.5766,3.5747,3.5783,3.5778,3.5782,3.5579,3.555,3.5798,3.5798,3.5798,3.5798,3.5798,3.5798,3.5252,3.5361,3.5354,3.5476,3.549,3.5571,3.5598,3.5631,3.5656,3.5753,3.5807,3.5811,3.5832,3.5895,3.5953,3.5953,3.5977,3.6021,3.6014,3.5823,3.5796,3.5771,3.5743,3.6028,3.6028,3.621,3.6212,3.6213]},{"header":{"parameterUnit":"m.s-1","parameterCategory":1,"la1":30.2991,"la2":30.254,"lo1":-89.0895,"lo2":-89.0444,"dy":0.0017,"dx":0.0017,"nx":28,"ny":28,"refTime":"2024-07-14T09:00:00:Z","depth":0,"parameterNumber":3,"parameterNumberName":"V-component_of_WINDS"},"data":[0,0,0,0,0,0,0,0,0,0,0,0,0,0,0,0,0,0,0,0,0,0,0,0,0,0,0,0,0,0,0,0,0,0,0,0,0,0,0,0,0,0,0,0,0,0,0,0,0,0,0,0,0,0,0,0,0,0,0.5609,0.561,0,0.5674,0.5675,0.5676,0.5661,0.566,0.5659,0.5658,0.5727,0.5729,0.5732,0,0,0,0,0,0,0,0,0,0,0,0,0,0.5472,0.5474,0.5609,0.561,0.5611,0.5674,0.5675,0.5676,0.5662,0.566,0.5659,0.5657,0.5726,0.5729,0.5733,0,0,0,0,0,0,0,0,0,0,0,0,0,0.5534,0.5475,0.5609,0.5611,0.5612,0.5674,0.5675,0.5676,0.5662,0.566,0.5658,0.5656,0.5724,0.5729,0.5733,0.5798,0,0,0.5747,0.5749,0,0,0,0,0,0,0,0,0.553,0.5539,0.561,0.5611,0.5612,0.5658,0.5652,0.5717,0.5662,0.5643,0.5658,0.5656,0.5705,0.5711,0.5728,0.5801,0.5804,0.5747,0.575,0.5752,0.5753,0,0,0,0,0,0,0,0.5526,0.5536,0.5635,0.5611,0.5612,0.5609,0.5615,0.5664,0.5684,0.5645,0.5644,0.5651,0.5706,0.5723,0.5729,0.5805,0.5747,0.5751,0.5754,0.5756,0.5931,0.5933,0,0,0,0,0,0,0.5521,0.5532,0.5633,0.5637,0.5566,0.5613,0.562,0.5645,0.5683,0.5687,0.5653,0.565,0.5717,0.5724,0.5731,0.5808,0.5752,0.5756,0.5759,0.5929,0.5932,0.5934,0,0,0,0,0,0,0.5518,0.553,0.563,0.5584,0.5597,0.5617,0.5645,0.5647,0.5665,0.5689,0.5693,0.5668,0.5715,0.5725,0.578,0.581,0.5758,0.5762,0.5927,0.593,0.5933,0.5962,0,0,0,0,0,0,0.5514,0.5529,0.5554,0.5585,0.5599,0.5679,0.5647,0.565,0.5672,0.567,0.5704,0.5708,0.5715,0.5774,0.5785,0.5815,0.5766,0.5924,0.5928,0.5932,0.5959,0.5966,0.5972,0,0,0,0,0,0.5509,0.5561,0.5555,0.5567,0.5631,0.568,0.5688,0.5695,0.5675,0.57,0.5715,0.5707,0.5805,0.578,0.5792,0.5824,0.5923,0.5927,0.5932,0.5956,0.5964,0.5972,0,0,0,0,0,0,0.5534,0.5565,0.5559,0.5623,0.5649,0.5678,0.571,0.5704,0.5737,0.5733,0.574,0.5748,0.5804,0.5819,0.5791,0.5887,0.5861,0.5868,0.5875,0.5883,0.589,0.5885,0.5769,0,0,0,0,0,0.5547,0.5584,0.5609,0.5662,0.5675,0.569,0.5712,0.5714,0.5742,0.5753,0.5772,0.58,0.5836,0.5861,0.5896,0.596,0.5967,0.5988,0.5995,0.6,0.6006,0.6039,0.6048,0.5949,0.5948,0.5948,0,0,0.5574,0.5595,0.5619,0.5668,0.5688,0.5726,0.57,0.5742,0.577,0.576,0.5812,0.5827,0.5858,0.5918,0.5945,0.5932,0.6035,0.6006,0.601,0.6013,0.6044,0.6054,0.6062,0.5952,0.5951,0.5951,0,0,0.5642,0.5663,0.5708,0.5728,0.5759,0.5768,0.5779,0.5808,0.5817,0.587,0.5862,0.5895,0.5959,0.598,0.6,0.6072,0.6065,0.6084,0.6118,0.615,0.6158,0.6165,0.619,0.6199,0.609,0.609,0.609,0,0.5672,0.5729,0.5733,0.5774,0.5795,0.5786,0.5831,0.5851,0.5892,0.5907,0.5892,0.5969,0.599,0.6053,0.607,0.6086,0.6098,0.608,0.6156,0.6164,0.617,0.6194,0.6203,0.6092,0.6091,0.6091,0.6091,0,0.5764,0.5803,0.5836,0.5873,0.5898,0.5942,0.5951,0.5976,0.5975,0.5985,0.6037,0.6061,0.6099,0.6114,0.6115,0.6177,0.6168,0.6155,0.6129,0.6181,0.6204,0.6213,0.6094,0.6094,0.6093,0.6093,0,0,0.5852,0.5889,0.5901,0.5917,0.5948,0.5979,0.602,0.6057,0.6077,0.6105,0.614,0.6192,0.6179,0.62,0.6203,0.6231,0.6284,0.6214,0.6214,0.6225,0.6352,0.6362,0.6372,0.6279,0.6281,0.6282,0.6349,0,0.5923,0.5997,0.5999,0.6066,0.6101,0.6091,0.6127,0.615,0.616,0.6191,0.6202,0.6238,0.6219,0.6232,0.6259,0.6272,0.631,0.6267,0.6311,0.6313,0.6304,0.6384,0.6395,0.6457,0.6358,0.636,0.6361,0,0.6016,0.6044,0.6115,0.6138,0.6153,0.6186,0.6218,0.6248,0.6272,0.6277,0.63,0.6297,0.6339,0.631,0.6367,0.6338,0.6356,0.6365,0.6367,0.6372,0.634,0.639,0.6477,0.6486,0.6375,0.6373,0.6372,0,0.6072,0.6128,0.6177,0.6191,0.622,0.6242,0.6256,0.6279,0.6299,0.6327,0.634,0.6373,0.6391,0.6416,0.6422,0.6401,0.6478,0.6451,0.6483,0.6483,0.6501,0.65,0.6591,0.6512,0.6512,0.6512,0.6512,0,0.6151,0.6194,0.6202,0.6232,0.6279,0.6281,0.6327,0.6339,0.6359,0.639,0.6383,0.6413,0.6418,0.6449,0.6453,0.6499,0.6507,0.6512,0.6513,0.6513,0.6512,0.6525,0.6521,0.6515,0.6514,0.6514,0.6513,0,0.6222,0.6229,0.6281,0.6303,0.631,0.6343,0.6362,0.639,0.6398,0.6437,0.6447,0.6459,0.6494,0.6502,0.6544,0.6547,0.6601,0.6597,0.6592,0.6592,0.6623,0.662,0.6726,0.674,0.6653,0.6653,0.6654,0,0.6272,0.6305,0.6329,0.6349,0.6363,0.6395,0.6416,0.6418,0.6439,0.6468,0.6492,0.6526,0.6554,0.661,0.6623,0.6654,0.6651,0.6686,0.6656,0.6654,0.6651,0.6649,0.6651,0.6692,0.6693,0.6694,0.6695,0,0.6359,0.636,0.639,0.6419,0.6443,0.6467,0.649,0.6506,0.6511,0.6536,0.6571,0.6592,0.6633,0.6666,0.6697,0.671,0.6703,0.6703,0.6712,0.6713,0.6708,0.671,0.6607,0.6701,0.6701,0.67,0.67,0.67,0.6421,0.6448,0.6469,0.6501,0.6518,0.6538,0.6565,0.6575,0.6604,0.6637,0.6636,0.6674,0.6695,0.6736,0.675,0.6779,0.6769,0.6782,0.6785,0.6788,0.6791,0.6703,0.6785,0.6785,0.6785,0.6785,0.6785,0,0.6507,0.6519,0.6548,0.6579,0.6603,0.6593,0.6616,0.6638,0.6671,0.6691,0.6717,0.6756,0.6787,0.6801,0.6832,0.6852,0.6849,0.686,0.6859,0.6861,0.6799,0.6788,0.6862,0.6862,0.6862,0.6862,0.6862,0.6862,0.6555,0.66,0.6602,0.6655,0.6667,0.6703,0.6717,0.6735,0.6751,0.6794,0.682,0.6828,0.6845,0.6876,0.6904,0.6907,0.6918,0.6931,0.6932,0.6874,0.6866,0.6859,0.6848,0.6933,0.6933,0.6992,0.6992,0.6993]}]]